Anniston, AL

10:57 AM CST on November 21, 2019 (GMT -0600)
Anniston Metro

Weather History for KANB - September, 2019

Change the Weather History Date:

Thursday, September 26, 2019

  Actual Average Record
Temperature  
Mean Temperature 81 °F 70 °F  
Max Temperature 96 °F 81 °F 97 °F (1931)
Min Temperature 66 °F 59 °F 40 °F (2001)
Degree Days  
Heating Degree Days 0    
Month to date heating degree days 0  
Since 1 July heating degree days 0  
Cooling Degree Days 16    
Growing Degree Days 30 (Base 50)    
Moisture  
Dew Point 65 °F    
Average Humidity 64    
Maximum Humidity 93    
Minimum Humidity 34    
Precipitation  
Precipitation 0.00 in 0.10 in 1.62 in (1962)
Month to date precipitation 0.42 2.53  
Year to date precipitation 39.59 37.45  
Sea Level Pressure  
Sea Level Pressure 29.90 in    
Wind  
Wind Speed 3 mph (NNW)    
Max Wind Speed 14 mph    
Max Gust Speed 20 mph    
Visibility 10 miles    
Events      
T = Trace of Precipitation, MM = Missing Value Source: NWS Daily Summary

Daily Weather History Graph

Daily Weather History Graph

Search for Another Location

Airport or City:

Astronomy

Sep. 26, 2019 Rise Set
Actual Time 6:34 AM CDT 6:34 PM CDT
Civil Twilight 6:09 AM CDT 6:59 PM CDT
Nautical Twilight 5:40 AM CDT 7:28 PM CDT
Astronomical Twilight 5:11 AM CDT 7:57 PM CDT
Moon 3:52 AM CDT (9/26) 5:37 PM CDT (9/26)
Length of Visible Light 12h 50m
Length of Day
12h 00m
Waning Crescent, 6% of the Moon is Illuminated
Sep 26
Waning Crescent
Sep 28
New
Oct 5
First Quarter
Oct 13
Full
Oct 21
Last Quarter

Hourly Weather History & Observations

Time (CDT) Temp. Heat Index Dew Point Humidity Pressure Visibility Wind Dir Wind Speed Gust Speed Precip Events Conditions
12:53 AM 72.0 °F - 66.9 °F 84% 29.87 in 10.0 mi Calm Calm - N/A   Clear
1:53 AM 70.0 °F - 66.9 °F 90% 29.86 in 10.0 mi Calm Calm - N/A   Clear
2:53 AM 71.1 °F - 66.9 °F 87% 29.86 in 10.0 mi ENE 3.5 mph - N/A   Clear
3:53 AM 69.1 °F - 66.0 °F 90% 29.88 in 10.0 mi Calm Calm - N/A   Clear
4:53 AM 66.9 °F - 64.9 °F 93% 29.90 in 10.0 mi Calm Calm - N/A   Clear
5:53 AM 66.9 °F - 64.9 °F 93% 29.91 in 10.0 mi Calm Calm - N/A   Mostly Cloudy
6:53 AM 66.9 °F - 64.9 °F 93% 29.93 in 10.0 mi Calm Calm - N/A   Clear
7:53 AM 70.0 °F - 66.9 °F 90% 29.96 in 10.0 mi Calm Calm - N/A   Clear
8:53 AM 77.0 °F - 68.0 °F 74% 29.96 in 10.0 mi West 3.5 mph - N/A   Clear
9:53 AM 84.9 °F 88.8 °F 69.1 °F 59% 29.96 in 10.0 mi SSW 4.6 mph - N/A   Clear
10:53 AM 89.1 °F 92.1 °F 66.9 °F 48% 29.94 in 10.0 mi Variable 3.5 mph - N/A   Clear
11:53 AM 91.9 °F 94.1 °F 64.9 °F 41% 29.92 in 10.0 mi North 4.6 mph - N/A   Partly Cloudy
12:53 PM 91.9 °F 93.3 °F 64.0 °F 39% 29.91 in 10.0 mi Calm Calm - N/A   Scattered Clouds
1:53 PM 93.0 °F 94.2 °F 63.0 °F 37% 29.88 in 10.0 mi WNW 8.1 mph - N/A   Scattered Clouds
2:53 PM 95.0 °F 95.6 °F 62.1 °F 33% 29.86 in 10.0 mi WNW 5.8 mph - N/A   Scattered Clouds
3:53 PM 95.0 °F 95.6 °F 62.1 °F 33% 29.86 in 10.0 mi North - - N/A   Scattered Clouds
5:53 PM 91.9 °F 92.5 °F 62.1 °F 37% 29.86 in 10.0 mi North 8.1 mph - N/A   Clear
6:53 PM 89.1 °F 90.0 °F 63.0 °F 42% 29.87 in 10.0 mi Calm Calm - N/A   Clear
7:53 PM 82.9 °F 84.4 °F 64.0 °F 53% 29.88 in 10.0 mi Calm Calm - N/A   Clear
8:53 PM 77.0 °F - 66.0 °F 69% 29.90 in 10.0 mi Calm Calm - N/A   Clear
9:53 PM 73.0 °F - 66.0 °F 79% 29.91 in 10.0 mi East 4.6 mph - N/A   Clear
10:53 PM 73.9 °F - 66.0 °F 76% 29.91 in 10.0 mi ENE 5.8 mph - N/A   Clear
11:53 PM 73.9 °F - 64.9 °F 73% 29.91 in 10.0 mi Calm Calm - N/A   Clear